Regional Weather Roundup
Issued by NWS

Home | Current Version | Previous Version | Graphics & Text | Print | Product List | Glossary On
Versions: 1 2 3 4 5 6 7 8 9 10 11 12 13 14 15 16 17 18 19 20 21 22 23 24 25 26 27 28 29 30 31 32 33 34 35 36 37 38 39 40 41 42 43 44 45 46 47 48 49 50
111
ASUS43 KOAX 241402
RWRNE

WEATHER ROUNDUP FOR NEBRASKA
NATIONAL WEATHER SERVICE OMAHA NE
900 AM CDT TUE APR 24 2018

NOTES: SATELLITE DATA IS BEING USED TO AUGMENT CLOUD COVER ABOVE
       12000 FEET.
       "FAIR" INDICATES FEW OR NO CLOUDS BELOW 12,000 FEET WITH NO
       SIGNIFICANT WEATHER AND/OR OBSTRUCTIONS TO VISIBILITY.


NEZ001>004-019>022-054>056-241500-
NEBRASKA PANHANDLE

CITY           SKY/WX    TMP DP  RH WIND       PRES   REMARKS
SCOTTSBLUFF    CLOUDY    38  32  79 N17       30.43R WCI  28
ALLIANCE       FLURRIES  34  33  96 N26G35    30.39R WCI  21
CHADRON        CLOUDY    37  30  75 N20G36    30.45R WCI  27
GORDON         CLOUDY    35  33  91 N28G33    30.36S WCI  22
KIMBALL        CLOUDY    34  32  92 N22G30    30.38S WCI  22
SIDNEY         LGT SNOW  35  32  88 N23G30    30.37R FOG     WCI  23
$$

NEZ057>060-069>072-079>082-241500-
SOUTHWEST NEBRASKA

CITY           SKY/WX    TMP DP  RH WIND       PRES   REMARKS
NORTH PLATTE   CLOUDY    41  37  86 N15G26    30.30R
IMPERIAL       CLOUDY    40  37  89 NW20G31   30.33R WCI  30
LEXINGTON      LGT RAIN  44  40  85 NW21G26   30.27R
MCCOOK         LGT RAIN  43  40  89 NW22G31   30.28R FOG
OGALLALA       LGT RAIN  40  37  90 N22       30.33R WCI  29
$$

NEZ005>010-023>029-035>040-094-241500-
NORTH CENTRAL NEBRASKA

CITY           SKY/WX    TMP DP  RH WIND       PRES   REMARKS
VALENTINE      CLOUDY    41  37  86 NW21G35   30.28R
AINSWORTH      CLOUDY    40  39  95 NW18G28   30.25R WCI  31
BROKEN BOW     LGT RAIN  42  39  89 NW22G32   30.23R
O`NEILL        CLOUDY    47  43  84 W20G26    30.22R
ORD            LGT RAIN  44  41  89 NW21      30.22R
THEDFORD       CLOUDY    40  37  88 NW23G31   30.30R WCI  29
$$

NEZ041-046>049-061>064-073>077-083>087-241500-
SOUTH CENTRAL NEBRASKA

CITY           SKY/WX    TMP DP  RH WIND       PRES   REMARKS
GRAND ISLAND   CLOUDY    51  44  77 NW18G31   30.20R
AURORA         CLOUDY    55  41  58 NW17      30.18R
HASTINGS       CLOUDY    54  47  77 NW22G29   30.20R
HEBRON         CLOUDY    52  42  68 CALM      30.16F
HOLDREGE       CLOUDY    47  43  84 N14G20    30.23R
KEARNEY        CLOUDY    47  41  80 NW16      30.23R
YORK             N/A     55  32  41 CALM      30.18R
$$

NEZ011>018-030>034-042>045-241500-
NORTHEAST NEBRASKA

CITY           SKY/WX    TMP DP  RH WIND       PRES   REMARKS
NORFOLK        PTSUNNY   52  42  69 CALM      30.15S
ALBION         CLOUDY    49  44  81 NW15      30.19R
BLAIR          SUNNY     56  40  55 CALM      30.15R
COLUMBUS       CLOUDY    52  39  61 W9        30.18R
FREMONT        MOSUNNY   54  41  61 CALM      30.16S
TEKAMAH        MOSUNNY   56  43  61 VRB3      30.16R
WAYNE          CLOUDY    49  47  93 CALM      30.17S
$$

NEZ050>053-065>068-078-088>093-241500-
SOUTHEAST NEBRASKA

CITY           SKY/WX    TMP DP  RH WIND       PRES   REMARKS
LINCOLN        MOSUNNY   51  38  60 MISG      30.17R
OMAHA EPPLEY   PTSUNNY   53  40  61 NW5       30.16R
BEATRICE       MOSUNNY   53  40  61 W3        30.16S
FALLS CITY     SUNNY     53  38  56 NW3       30.14R
NEBRASKA CITY  SUNNY     56  37  49 CALM      30.15R
$$

NEZ044-045-051>053-067-241500-
OMAHA AREA

CITY           SKY/WX    TMP DP  RH WIND       PRES   REMARKS
OMAHA EPPLEY   PTSUNNY   53  40  61 NW5       30.16R
BLAIR          SUNNY     56  40  55 CALM      30.15R
FREMONT        MOSUNNY   54  41  61 CALM      30.16S
MILLARD        SUNNY     57  41  55 CALM      30.15S
OFFUTT AFB     SUNNY     55  40  57 CALM      30.15R
WAHOO          PTSUNNY   56  37  48 NW3       30.16S
$$




USA.gov is the U.S. government's official web portal to all federal, state and local government web resources and services.